Regional Weather Roundup
Issued by NWS Raleigh/Durham, NC

Home | Current Version | Previous Version | Text Only | Print | Product List | Glossary On
Versions: 1 2 3 4 5 6 7 8 9 10 11 12 13 14 15 16 17 18 19 20 21 22 23 24 25 26 27
000
ASUS42 KRAH 120510
RWRRAH
NORTH CAROLINA WEATHER ROUNDUP
NATIONAL WEATHER SERVICE RALEIGH NC
1200 AM EST TUE DEC 12 2017

NOTE: "FAIR" INDICATES FEW OR NO CLOUDS BELOW 12,000 FEET WITH NO
SIGNIFICANT WEATHER AND/OR OBSTRUCTIONS TO VISIBILITY.

NCZ001-053-055-056-065-067-120600-
WESTERN NORTH CAROLINA

CITY           SKY/WX    TMP DP  RH WIND       PRES   REMARKS
ASHEVILLE      CLEAR     30  27  88 CALM      29.86F
JEFFERSON      PTCLDY    36  27  70 CALM      29.81F
MORGANTON      CLEAR     30  30  99 NW3       29.88F
HICKORY        CLEAR     40  31  70 SW3       29.84F
RUTHERFORDTON  CLEAR     35  31  84 CALM      29.87F
MOUNT AIRY     CLEAR     35  29  80 CALM      29.86F
BOONE          CLEAR     29  28  96 CALM      29.82F
$$

NCZ021-022-025-041-071-084-088-120600-
CENTRAL NORTH CAROLINA

CITY           SKY/WX    TMP DP  RH WIND       PRES   REMARKS
CHARLOTTE      CLEAR     40  33  76 S5        29.88F
GREENSBORO     CLEAR     38  30  73 S7        29.85F WCI  33
WINSTON-SALEM  CLEAR     42  30  62 S7        29.85F
RALEIGH-DURHAM CLEAR     42  29  59 S7        29.91F
FORT BRAGG     CLEAR     40  30  67 CALM      29.93F
FAYETTEVILLE   CLEAR     39  31  72 S6        29.94F WCI  35
BURLINGTON     CLEAR     41  30  65 S5        29.86F
LAURINBURG     CLEAR     40  33  76 SW8       29.95F WCI  34
$$

NCZ011-015-027-028-043-044-047-080-103-120600-
NORTHEASTERN NORTH CAROLINA

CITY           SKY/WX    TMP DP  RH WIND       PRES   REMARKS
ROCKY MT-WILSO CLEAR     37  31  78 S5        29.94F WCI  33
GREENVILLE     CLEAR     36  32  87 CALM      29.98F
WASHINGTON     CLEAR     34  32  92 CALM      29.98S
ELIZABETH CITY CLEAR     39  37  92 S5        29.95F
MANTEO         CLEAR     36  32  86 S3        29.98F
CAPE HATTERAS  CLEAR     39  37  92 NW5       29.96F
$$

NCZ078-087-090-091-093-098-101-120600-
SOUTHEASTERN NORTH CAROLINA

CITY           SKY/WX    TMP DP  RH WIND       PRES   REMARKS
LUMBERTON      CLEAR     39  32  76 CALM      29.95F
GOLDSBORO      CLEAR     39  30  70 CALM      29.94F
KINSTON        CLEAR     33  31  92 S3        29.98F
KENANSVILLE    CLEAR     36  32  87 CALM      29.97F
NEW BERN       CLEAR     36  33  89 W7        29.98F WCI  30
CHERRY POINT   CLEAR     33  33 100 SW5       29.97F WCI  29
BEAUFORT       CLEAR     34  32  92 CALM      29.97F
JACKSONVILLE   CLEAR     40  34  79 SW6       29.97F
WILMINGTON     CLEAR     35  33  92 CALM      29.98F
$$





USA.gov is the U.S. government's official web portal to all federal, state and local government web resources and services.